Regional Weather Roundup
Issued by NWS

Home | Current Version | Previous Version | Graphics & Text | Print | Product List | Glossary Off
Versions: 1 2 3 4 5 6 7 8 9 10 11 12 13 14 15 16 17 18 19 20 21 22 23 24 25 26 27 28 29 30 31 32 33 34 35 36 37 38 39 40 41 42 43 44 45 46 47 48 49 50

000
ASUS43 KDMX 061503
RWRIA

WEATHER ROUNDUP FOR IOWA
NATIONAL WEATHER SERVICE DES MOINES IA
1000 AM CDT FRI MAY 06 2016

NOTE: "FAIR" INDICATES FEW OR NO CLOUDS BELOW 12,000 FEET WITH NO
SIGNIFICANT WEATHER AND/OR OBSTRUCTIONS TO VISIBILITY.

* - THESE STATIONS ARE NOT NWS STATIONS...THUS NOT UNDER NWS
QUALITY CONTROL.  THEY ALSO DO NOT REPORT WEATHER SUCH
AS PRECIPITATION OR FOG.

IAZ001>003-012>014-020>022-031>034-043>046-061600-
   NORTHWEST IOWA

CITY           SKY/WX    TMP DP  RH WIND       PRES   REMARKS
CARROLL *      SUNNY     73  46  38 W21       29.99S
CHEROKEE *     SUNNY     70  49  46 SW14      29.96F
DENISON *      SUNNY     70  46  43 SW15      29.99S
LE MARS *      SUNNY     70  50  49 S15       29.95F
ORANGE CITY *  SUNNY     70  48  46 SW16      29.94S
SHELDON *      MOSUNNY   73  45  35 SW20G25   29.92S
SIOUX CITY     SUNNY     74  51  44 SW16      29.96
SPENCER        SUNNY     73  45  36 SW21G26   29.94F
STORM LAKE *   SUNNY     72  45  37 SW20G26   29.98F
$$

IAZ055>058-069>071-079>083-090>094-061600-
   SOUTHWEST IOWA

CITY           SKY/WX    TMP DP  RH WIND       PRES   REMARKS
ATLANTIC *     SUNNY     70  48  46 SW10G17   30.02F
AUDUBON *      SUNNY     70  48  46 SW10      30.02S
CLARINDA *       N/A     70  50  49 MISG      30.05F
COUNCIL BLFS * SUNNY     68  50  52 SW12      30.02S
CRESTON *      SUNNY     70  48  46 W13       30.04F
HARLAN  *      SUNNY     72  46  40 SW13      30.04F
LAMONI         SUNNY     68  48  48 SW14      30.04F
RED OAK *      SUNNY     70  50  49 SW10      30.03S
SHENANDOAH *   SUNNY     70  48  46 SW10      30.04S
$$

IAZ047>049-059>061-072>074-084-061600-
   CENTRAL IOWA

CITY           SKY/WX    TMP DP  RH WIND       PRES   REMARKS
AMES           SUNNY     72  47  40 W13       29.99F
ANKENY *       SUNNY     72  50  46 VRB5G13   30.00F
BOONE *        SUNNY     72  48  43 W12       29.98F
CHARITON *     SUNNY     70  46  43 SW9       30.03S
DES MOINES     MOSUNNY   71  47  42 W7        30.01S
GRINNELL*      SUNNY     68  46  45 SW14      30.01S
KNOXVILLE *    SUNNY     70  45  40 SW12      30.01S
MARSHALLTOWN   SUNNY     70  48  45 W12       29.98F
NEWTON *       SUNNY     70  45  40 W12       30.00F
PELLA *        SUNNY     69  46  43 SW9       30.03S
PERRY *          N/A     73  45  35 W15       30.00S
$$

IAZ004>006-015-016-023>025-035-036-061600-
   NORTH CENTRAL IOWA

CITY           SKY/WX    TMP DP  RH WIND       PRES   REMARKS
ALGONA *       SUNNY     73  46  38 SW18      29.95F
CLARION *      SUNNY     75  45  33 W20       29.96F
ESTHERVILLE    SUNNY     73  46  38 SW20G28   29.92
FORT DODGE *   SUNNY     72  48  43 W15G21    29.99S
MASON CITY     SUNNY     72  48  42 W15       29.96F
FOREST CITY *    N/A     73  45  35 W12G18    29.95F
WEBSTER CITY * SUNNY     75  46  35 W22       29.96S
IOWA FALLS *     N/A     72  46  40 W15       29.99S
$$

IAZ007>011-017>019-026>030-037>042-050>054-066-061600-
   NORTHEAST IOWA

CITY           SKY/WX    TMP DP  RH WIND       PRES   REMARKS
CEDAR RAPIDS   SUNNY     69  48  47 W13       29.98F
CHARLES CITY * SUNNY     75  45  33 W14       29.95F
CLINTON *      MOSUNNY   66  45  46 W12       30.00F
DECORAH *      SUNNY     72  45  37 W8        29.93F
DUBUQUE        SUNNY     64  47  53 SW7       29.98S
MONTICELLO *   SUNNY     70  45  40 W12       29.98S
OELWEIN *      SUNNY     70  45  40 W10       29.97F
WATERLOO       SUNNY     71  45  39 W9        29.96F
$$

IAZ064-065-067-068-078-061600-
   EAST CENTRAL IOWA

CITY           SKY/WX    TMP DP  RH WIND       PRES   REMARKS
DAVENPORT      MOSUNNY   66  41  40 W14       30.02S
IOWA CITY      SUNNY     68  46  45 W9        30.01F
MT. PLEASANT * SUNNY     68  43  40 W12       30.03S
MUSCATINE *    SUNNY     68  45  42 W8        30.01F
QUAD CITIES    MOSUNNY   68  42  38 W7        30.00F
$$

IAZ062-063-075>077-085>089-095>099-061600-
   SOUTHEAST IOWA

CITY           SKY/WX    TMP DP  RH WIND       PRES   REMARKS
BURLINGTON     SUNNY     67  45  45 W10       30.03F
FAIRFIELD *    SUNNY     68  43  40 W9        30.02F
FORT MADISON * SUNNY     66  43  42 W7        30.04S
KEOKUK *       SUNNY     66  43  42 SW9       30.03F
OSKALOOSA *      N/A     72  43  35 W12       30.02S
OTTUMWA        SUNNY     70  45  40 W14       30.02F
WASHINGTON *   SUNNY     68  45  42 W15       30.02F
$$

ABBREVIATIONS USED IN REMARKS
   TC - TEMPERATURES IN CELSIUS
  WCI - WIND CHILL INDEX
   HX - HEAT INDEX
  VSB - VISIBILITY
$$





USA.gov is the U.S. government's official web portal to all federal, state and local government web resources and services.